TimeCST,TemperatureF,Dew PointF,Humidity,Sea Level PressureIn,VisibilityMPH,Wind Direction,Wind SpeedMPH,Gust SpeedMPH,PrecipitationIn,Events,Conditions,WindDirDegrees,DateUTC
12:15 AM,41.0,34.2,77,29.90,10.0,South,6.9,-,N/A,,Overcast,170,2013-02-07 06:15:00
12:35 AM,41.9,34.9,76,29.90,10.0,South,8.1,-,N/A,,Mostly Cloudy,170,2013-02-07 06:35:00
12:55 AM,41.7,34.9,77,29.90,10.0,South,9.2,-,N/A,,Mostly Cloudy,180,2013-02-07 06:55:00
1:15 AM,42.1,36.0,79,29.89,10.0,South,11.5,19.6,N/A,,Overcast,180,2013-02-07 07:15:00
1:35 AM,41.9,37.0,83,29.89,10.0,South,10.4,-,N/A,Rain,Rain,170,2013-02-07 07:35:00
1:55 AM,41.9,38.5,88,29.89,10.0,SSW,9.2,-,N/A,,Drizzle,200,2013-02-07 07:55:00
2:15 AM,41.9,39.2,90,29.89,7.0,South,6.9,-,0.01,Rain,Rain,190,2013-02-07 08:15:00
2:35 AM,42.1,39.9,92,29.89,5.0,SSW,5.8,-,0.05,Rain,Light Rain,210,2013-02-07 08:35:00
2:55 AM,41.5,39.2,91,29.88,10.0,SSW,9.2,-,0.05,Rain,Rain,200,2013-02-07 08:55:00
3:15 AM,41.0,38.7,91,29.87,7.0,South,8.1,-,0.01,Rain,Light Rain,190,2013-02-07 09:15:00
3:55 AM,41.0,39.2,93,29.87,10.0,SSE,6.9,-,0.03,Rain,Light Rain,160,2013-02-07 09:55:00
4:15 AM,40.6,38.7,93,29.87,10.0,SE,4.6,-,N/A,,Overcast,130,2013-02-07 10:15:00
4:35 AM,40.3,37.9,91,29.87,10.0,SE,6.9,-,N/A,,Overcast,140,2013-02-07 10:35:00
4:55 AM,40.5,37.9,91,29.88,10.0,SSE,5.8,-,N/A,,Overcast,150,2013-02-07 10:55:00
5:15 AM,39.7,37.8,93,29.88,10.0,ESE,3.5,-,N/A,,Overcast,120,2013-02-07 11:15:00
5:35 AM,39.6,37.4,92,29.87,10.0,ESE,4.6,-,N/A,,Overcast,120,2013-02-07 11:35:00
5:55 AM,38.8,36.7,92,29.88,10.0,SE,5.8,-,N/A,,Drizzle,130,2013-02-07 11:55:00
6:15 AM,38.8,36.9,93,29.88,10.0,Calm,Calm,-,N/A,,Light Drizzle,0,2013-02-07 12:15:00
6:35 AM,38.5,36.5,93,29.88,10.0,Calm,Calm,-,N/A,Rain,Light Rain,0,2013-02-07 12:35:00
6:55 AM,37.6,36.1,95,29.88,7.0,NNW,3.5,-,N/A,,Overcast,340,2013-02-07 12:55:00
7:15 AM,37.8,36.5,95,29.89,5.0,NNW,3.5,-,0.01,Rain,Light Rain,330,2013-02-07 13:15:00
7:35 AM,37.8,36.7,96,29.89,4.0,North,3.5,-,0.03,Rain,Light Rain,10,2013-02-07 13:35:00
7:55 AM,37.6,36.5,96,29.89,2.5,Calm,Calm,-,0.03,,Overcast,0,2013-02-07 13:55:00
8:15 AM,37.6,36.5,96,29.90,1.8,Calm,Calm,-,N/A,,Overcast,0,2013-02-07 14:15:00
8:35 AM,37.8,36.9,97,29.91,1.2,NW,3.5,-,0.01,Rain,Rain,320,2013-02-07 14:35:00
8:55 AM,38.3,37.4,97,29.92,1.0,NW,3.5,-,0.02,Rain,Light Rain,310,2013-02-07 14:55:00
9:15 AM,38.3,37.4,97,29.92,0.5,NW,8.1,-,0.02,Rain,Rain,320,2013-02-07 15:15:00
9:35 AM,37.8,36.9,97,29.93,4.0,NW,12.7,-,0.04,Rain,Light Rain,310,2013-02-07 15:35:00
9:55 AM,36.3,35.2,96,29.93,4.0,NNW,12.7,-,0.05,Rain,Light Rain,330,2013-02-07 15:55:00
10:15 AM,36.7,35.1,94,29.93,5.0,NNW,12.7,-,N/A,Rain,Light Rain,340,2013-02-07 16:15:00
10:35 AM,36.5,35.1,95,29.94,4.0,NNW,11.5,-,0.01,Rain,Light Rain,330,2013-02-07 16:35:00
10:55 AM,36.0,34.7,95,29.94,3.0,NNW,16.1,20.7,0.01,Rain,Light Rain,340,2013-02-07 16:55:00
11:15 AM,35.6,34.2,94,29.94,3.0,NNW,11.5,-,0.01,Rain,Light Rain,340,2013-02-07 17:15:00
11:35 AM,35.6,34.3,95,29.94,4.0,NNW,13.8,-,0.01,Rain,Light Rain,340,2013-02-07 17:35:00
11:55 AM,34.7,33.4,95,29.94,4.0,NNW,19.6,-,0.01,,Light Drizzle,330,2013-02-07 17:55:00
12:15 PM,33.1,32.0,96,29.94,1.2,NNW,15.0,21.9,N/A,,Overcast,330,2013-02-07 18:15:00
12:35 PM,32.4,31.8,98,29.95,1.8,NW,13.8,-,N/A,,Overcast,320,2013-02-07 18:35:00
12:55 PM,32.0,31.5,98,29.95,1.8,NNW,17.3,-,N/A,,Overcast,330,2013-02-07 18:55:00
1:15 PM,32.0,31.3,97,29.95,1.8,NW,18.4,24.2,N/A,,Overcast,320,2013-02-07 19:15:00
1:35 PM,32.0,31.1,96,29.96,2.0,NW,17.3,25.3,N/A,,Overcast,320,2013-02-07 19:35:00
1:55 PM,32.0,30.9,96,29.97,1.8,NNW,16.1,25.3,N/A,,Overcast,330,2013-02-07 19:55:00
2:15 PM,31.8,30.7,96,29.97,1.8,NW,10.4,20.7,N/A,,Overcast,320,2013-02-07 20:15:00
2:35 PM,31.6,30.4,95,29.98,2.0,NW,13.8,-,N/A,,Overcast,320,2013-02-07 20:35:00
2:55 PM,31.5,30.2,95,29.98,2.0,NW,21.9,26.5,N/A,,Overcast,320,2013-02-07 20:55:00
3:15 PM,31.5,30.2,95,30.00,2.0,NW,12.7,-,N/A,,Overcast,320,2013-02-07 21:15:00
3:35 PM,31.3,29.8,94,30.00,2.0,NNW,11.5,-,N/A,,Overcast,330,2013-02-07 21:35:00
3:55 PM,30.9,29.5,94,30.01,1.8,NW,17.3,23.0,N/A,,Overcast,320,2013-02-07 21:55:00
4:15 PM,30.9,29.7,95,30.02,1.5,NW,16.1,21.9,N/A,,Overcast,310,2013-02-07 22:15:00
4:35 PM,30.6,29.3,95,30.03,2.0,NW,16.1,23.0,N/A,,Overcast,320,2013-02-07 22:35:00
4:55 PM,30.2,28.9,95,30.03,2.0,NW,16.1,21.9,N/A,,Overcast,320,2013-02-07 22:55:00
5:15 PM,30.0,28.6,94,30.04,2.0,NW,16.1,21.9,N/A,,Overcast,320,2013-02-07 23:15:00
5:35 PM,30.0,28.4,94,30.06,4.0,NW,15.0,-,N/A,,Overcast,320,2013-02-07 23:35:00
5:55 PM,29.8,28.2,94,30.07,4.0,NW,17.3,20.7,N/A,,Overcast,320,2013-02-07 23:55:00
6:15 PM,29.8,27.9,92,30.08,5.0,NNW,15.0,-,N/A,,Overcast,330,2013-02-08 00:15:00
6:35 PM,29.8,27.5,91,30.09,5.0,NNW,17.3,-,N/A,,Overcast,330,2013-02-08 00:35:00
6:55 PM,29.8,27.5,91,30.10,5.0,NNW,13.8,21.9,N/A,,Overcast,330,2013-02-08 00:55:00
7:15 PM,29.7,27.5,92,30.10,5.0,NNW,17.3,-,N/A,,Overcast,330,2013-02-08 01:15:00
7:35 PM,29.5,27.3,92,30.12,5.0,NNW,12.7,20.7,N/A,,Overcast,330,2013-02-08 01:35:00
7:55 PM,29.3,27.0,91,30.12,7.0,NNW,12.7,18.4,N/A,,Overcast,330,2013-02-08 01:55:00
8:15 PM,29.3,26.6,90,30.12,7.0,NNW,13.8,-,N/A,,Overcast,330,2013-02-08 02:15:00
8:35 PM,29.3,26.2,88,30.13,7.0,NNW,13.8,-,N/A,,Overcast,330,2013-02-08 02:35:00
8:55 PM,29.1,26.1,88,30.13,7.0,NNW,13.8,19.6,N/A,,Overcast,330,2013-02-08 02:55:00
9:15 PM,28.9,25.7,88,30.14,7.0,NNW,13.8,-,N/A,,Overcast,330,2013-02-08 03:15:00
9:35 PM,28.9,26.1,89,30.15,7.0,NW,11.5,16.1,N/A,,Overcast,320,2013-02-08 03:35:00
9:55 PM,28.9,25.7,88,30.15,7.0,NW,15.0,-,N/A,,Overcast,320,2013-02-08 03:55:00
10:15 PM,28.9,26.1,89,30.15,7.0,NNW,12.7,-,N/A,,Overcast,330,2013-02-08 04:15:00
10:35 PM,28.8,25.7,88,30.16,7.0,NW,15.0,19.6,N/A,,Overcast,320,2013-02-08 04:35:00
10:55 PM,28.8,25.9,89,30.16,7.0,NW,10.4,-,N/A,,Overcast,320,2013-02-08 04:55:00
11:15 PM,28.6,25.7,89,30.17,7.0,NNW,13.8,-,N/A,,Overcast,330,2013-02-08 05:15:00
11:35 PM,28.4,25.7,90,30.17,7.0,NW,10.4,17.3,N/A,,Overcast,320,2013-02-08 05:35:00
11:55 PM,28.2,25.5,90,30.18,7.0,NW,11.5,-,N/A,,Overcast,310,2013-02-08 05:55:00